[[{"header":{"parameterUnit":"m.s-1","parameterCategory":1,"la1":30.2991,"la2":30.254,"lo1":-89.0895,"lo2":-89.0444,"dy":0.0017,"dx":0.0017,"nx":28,"ny":28,"refTime":"2025-05-16T03:00:00:Z","depth":0,"parameterNumber":2,"parameterNumberName":"U-component_of_WINDS"},"data":[0,0,0,0,0,0,0,0,0,0,0,0,0,0,0,0,0,0,0,0,0,0,0,0,0,0,0,0,0,0,0,0,0,0,0,0,0,0,0,0,0,0,0,0,0,0,0,0,0,0,0,0,0,0,0,0,0,0,1.4178,1.4178,0,1.4198,1.4198,1.4199,1.417,1.4169,1.4168,1.4167,1.4187,1.4189,1.419,0,0,0,0,0,0,0,0,0,0,0,0,0,1.4113,1.4114,1.4178,1.4178,1.4178,1.4198,1.4198,1.4199,1.417,1.4169,1.4168,1.4166,1.4187,1.4189,1.4191,0,0,0,0,0,0,0,0,0,0,0,0,0,1.4138,1.4115,1.4178,1.4166,1.4166,1.4198,1.4198,1.4199,1.417,1.4169,1.4167,1.4166,1.4186,1.4189,1.4191,1.4235,0,0,1.4198,1.4199,0,0,0,0,0,0,0,0,1.4137,1.414,1.4168,1.4167,1.4166,1.418,1.4183,1.4211,1.4171,1.4169,1.4167,1.4165,1.4186,1.4188,1.4195,1.4236,1.4237,1.4198,1.4199,1.42,1.4201,0,0,0,0,0,0,0,1.4135,1.4139,1.4186,1.4168,1.4167,1.416,1.4162,1.4188,1.4186,1.4169,1.4167,1.4169,1.4185,1.4193,1.4196,1.4237,1.4198,1.42,1.4201,1.4202,1.4314,1.4315,0,0,0,0,0,0,1.4135,1.4138,1.4185,1.4187,1.4147,1.4162,1.4164,1.4177,1.4185,1.4185,1.4171,1.4168,1.419,1.4193,1.4196,1.4248,1.42,1.4202,1.4204,1.4312,1.4314,1.4316,0,0,0,0,0,0,1.4133,1.4139,1.4184,1.4162,1.4167,1.4165,1.418,1.4178,1.4186,1.4187,1.4186,1.4179,1.4189,1.4193,1.4225,1.4248,1.4203,1.4205,1.431,1.4313,1.4315,1.4352,0,0,0,0,0,0,1.4132,1.4139,1.4156,1.4162,1.4168,1.4214,1.4181,1.418,1.419,1.4187,1.4195,1.4195,1.4188,1.4222,1.4228,1.425,1.4207,1.4308,1.4312,1.4314,1.4348,1.4355,1.4361,0,0,0,0,0,1.4129,1.4166,1.4157,1.4163,1.419,1.4215,1.4218,1.421,1.4192,1.4209,1.4209,1.4194,1.4245,1.4226,1.4232,1.4255,1.4307,1.4311,1.4314,1.4346,1.4354,1.4361,0,0,0,0,0,0,1.4163,1.4167,1.4157,1.4197,1.4206,1.421,1.4231,1.422,1.4234,1.423,1.422,1.4222,1.4256,1.4259,1.4238,1.4298,1.4273,1.4278,1.4295,1.4302,1.4308,1.4306,1.4209,0,0,0,0,0,1.4175,1.4195,1.4197,1.4232,1.4237,1.4234,1.4244,1.4237,1.4246,1.425,1.4252,1.4261,1.4279,1.4291,1.4308,1.4349,1.4349,1.4368,1.4374,1.4379,1.4383,1.4404,1.4412,1.4328,1.4328,1.4328,0,0,1.42,1.4204,1.4218,1.4239,1.4245,1.4266,1.4237,1.426,1.4275,1.4253,1.4283,1.4286,1.4295,1.4332,1.4348,1.4335,1.4407,1.4384,1.4388,1.4389,1.4408,1.4416,1.4423,1.433,1.433,1.433,0,0,1.4255,1.4261,1.429,1.4297,1.4306,1.4303,1.431,1.4316,1.4317,1.4347,1.433,1.4348,1.4379,1.4386,1.4394,1.4451,1.4437,1.4456,1.4488,1.4508,1.4515,1.4521,1.454,1.4547,1.4461,1.4461,1.4461,0,1.4285,1.4315,1.4307,1.4331,1.434,1.4321,1.4349,1.4356,1.4371,1.4377,1.4363,1.44,1.4405,1.4443,1.4456,1.4464,1.447,1.4455,1.4515,1.452,1.4526,1.4543,1.4551,1.4463,1.4463,1.4463,1.4462,0,1.4351,1.4372,1.4394,1.4408,1.442,1.4446,1.4441,1.4454,1.4445,1.4444,1.4474,1.4479,1.4496,1.4504,1.4497,1.454,1.4532,1.4516,1.4491,1.4536,1.4552,1.4559,1.4466,1.4465,1.4465,1.4464,0,0,1.4428,1.4436,1.4444,1.4449,1.4458,1.4474,1.4499,1.4515,1.4526,1.4536,1.4556,1.4583,1.4568,1.4576,1.457,1.4587,1.463,1.457,1.457,1.4579,1.4677,1.4687,1.4695,1.4622,1.4623,1.4624,1.4675,0,1.4482,1.4525,1.4517,1.4559,1.4578,1.4559,1.4581,1.4588,1.4587,1.4603,1.4602,1.462,1.46,1.4605,1.4622,1.4622,1.4649,1.4618,1.4639,1.464,1.4636,1.4704,1.4716,1.4764,1.4682,1.4683,1.4684,0,1.4551,1.4563,1.4607,1.4611,1.4619,1.4639,1.4652,1.4667,1.4675,1.4673,1.4682,1.4671,1.4695,1.467,1.4702,1.4681,1.4689,1.469,1.4692,1.4692,1.4664,1.4706,1.4779,1.4786,1.4694,1.4693,1.4693,0,1.4601,1.4629,1.4658,1.4663,1.467,1.4683,1.4687,1.4693,1.4702,1.4714,1.472,1.4734,1.4742,1.4753,1.4746,1.4729,1.4779,1.4754,1.4777,1.4778,1.4788,1.4787,1.4863,1.4796,1.4796,1.4795,1.4795,0,1.4662,1.4689,1.468,1.4698,1.4727,1.4718,1.4747,1.4748,1.4753,1.477,1.4756,1.4772,1.4763,1.4778,1.4773,1.48,1.4804,1.4802,1.48,1.4803,1.4803,1.4807,1.4803,1.4797,1.4797,1.4797,1.4796,0,1.4722,1.4718,1.4748,1.4751,1.4753,1.4774,1.4776,1.4792,1.479,1.4812,1.4817,1.4813,1.4831,1.4825,1.4844,1.4841,1.4874,1.4869,1.4871,1.487,1.4893,1.489,1.4973,1.4983,1.4911,1.4911,1.4912,0,1.476,1.478,1.4786,1.4796,1.48,1.4817,1.4827,1.4818,1.4828,1.4838,1.4853,1.4869,1.4881,1.491,1.4908,1.4922,1.4916,1.4944,1.4918,1.492,1.4915,1.4913,1.4915,1.4949,1.495,1.4951,1.4951,0,1.4828,1.4825,1.4839,1.4852,1.4864,1.4874,1.4883,1.4892,1.4884,1.4896,1.4914,1.4923,1.4942,1.4958,1.497,1.4973,1.496,1.496,1.4966,1.4968,1.4968,1.4967,1.4884,1.4958,1.4957,1.4956,1.4956,1.4956,1.4878,1.4894,1.49,1.4916,1.4922,1.493,1.4945,1.4944,1.4959,1.4973,1.4967,1.4987,1.4993,1.5008,1.5013,1.5028,1.5017,1.5026,1.5028,1.503,1.5032,1.4967,1.503,1.503,1.503,1.503,1.5029,0,1.4943,1.4946,1.4961,1.4973,1.4986,1.4973,1.4982,1.4993,1.501,1.5017,1.5029,1.5049,1.5063,1.5064,1.5077,1.5089,1.5083,1.5093,1.5091,1.5092,1.5042,1.5035,1.5097,1.5097,1.5097,1.5097,1.5097,1.5097,1.4979,1.5005,1.5003,1.5032,1.5034,1.5053,1.5059,1.5066,1.5071,1.5093,1.5106,1.5106,1.5109,1.5123,1.5136,1.5135,1.514,1.5152,1.5149,1.5102,1.5095,1.5089,1.5082,1.5153,1.5153,1.5197,1.5197,1.5198]},{"header":{"parameterUnit":"m.s-1","parameterCategory":1,"la1":30.2991,"la2":30.254,"lo1":-89.0895,"lo2":-89.0444,"dy":0.0017,"dx":0.0017,"nx":28,"ny":28,"refTime":"2025-05-16T03:00:00:Z","depth":0,"parameterNumber":3,"parameterNumberName":"V-component_of_WINDS"},"data":[0,0,0,0,0,0,0,0,0,0,0,0,0,0,0,0,0,0,0,0,0,0,0,0,0,0,0,0,0,0,0,0,0,0,0,0,0,0,0,0,0,0,0,0,0,0,0,0,0,0,0,0,0,0,0,0,0,0,5.9927,5.9928,0,6.0031,6.0032,6.0033,5.9984,5.9982,5.9979,5.9976,6.0076,6.0081,6.0086,0,0,0,0,0,0,0,0,0,0,0,0,0,5.968,5.9685,5.9927,5.9928,5.993,6.0031,6.0032,6.0033,5.9985,5.9981,5.9978,5.9975,6.0075,6.0081,6.0087,0,0,0,0,0,0,0,0,0,0,0,0,0,5.9786,5.9687,5.9927,5.9918,5.9918,6.003,6.0032,6.0034,5.9985,5.9981,5.9977,5.9974,6.0073,6.008,6.0087,6.0213,0,0,6.0111,6.0114,0,0,0,0,0,0,0,0,5.978,5.9795,5.9918,5.9919,5.9919,5.9991,5.9981,6.0094,5.9986,5.996,5.9976,5.9972,6.005,6.006,6.0087,6.0218,6.0222,6.0111,6.0116,6.0119,6.0122,0,0,0,0,0,0,0,5.9773,5.979,5.9968,5.992,5.992,5.9906,5.9917,6.0002,6.0025,5.9962,5.9958,5.9972,6.005,6.008,6.0089,6.0223,6.0111,6.0118,6.0123,6.0126,6.046,6.0465,0,0,0,0,0,0,5.9766,5.9784,5.9965,5.9971,5.9839,5.9914,5.9926,5.9971,6.0024,6.0029,5.9975,5.9969,6.0069,6.0081,6.0093,6.0243,6.0119,6.0126,6.0131,6.0456,6.0461,6.0466,0,0,0,0,0,0,5.9761,5.9783,5.996,5.9877,5.9898,5.9922,5.9974,5.9976,6.0006,6.0035,6.0038,6.0002,6.0067,6.0082,6.0184,6.0246,6.013,6.0137,6.0451,6.0458,6.0464,6.0545,0,0,0,0,0,0,5.9755,5.9782,5.9831,5.9879,5.9903,6.0052,5.9978,5.998,6.002,6.0013,6.0061,6.0065,6.0065,6.0173,6.0191,6.0254,6.0143,6.0446,6.0454,6.0462,6.0537,6.0553,6.0568,0,0,0,0,0,5.9746,5.9849,5.9834,5.9856,5.9966,6.0056,6.007,6.0069,6.0025,6.0074,6.0092,6.0063,6.0236,6.0183,6.0204,6.027,6.0442,6.0452,6.0461,6.053,6.055,6.0567,0,0,0,0,0,0,5.9806,5.9855,5.9839,5.9961,6.0005,6.0047,6.0109,6.009,6.0146,6.0137,6.0132,6.0143,6.0249,6.0269,6.021,6.0394,6.0332,6.0346,6.0377,6.0397,6.0412,6.0405,6.0149,0,0,0,0,0,5.9834,5.9905,5.9942,6.0046,6.0069,6.0086,6.0125,6.0121,6.0165,6.0183,6.0208,6.0251,6.0314,6.0356,6.0416,6.0539,6.0548,6.0595,6.061,6.0622,6.0635,6.0701,6.0722,6.0498,6.0498,6.0498,0,0,5.9891,5.9927,5.9971,6.0059,6.0093,6.0164,6.0102,6.018,6.0233,6.0194,6.0292,6.0312,6.0359,6.0472,6.0523,6.0492,6.0699,6.0635,6.0645,6.0651,6.0713,6.0734,6.0753,6.0505,6.0503,6.0502,0,0,6.0033,6.0067,6.0158,6.0193,6.0245,6.0255,6.0277,6.0323,6.0335,6.0434,6.0407,6.0467,6.0577,6.0612,6.0644,6.0798,6.0773,6.0817,6.0897,6.0962,6.0979,6.0995,6.105,6.1069,6.0829,6.0829,6.0829,0,6.0097,6.0207,6.0205,6.0287,6.0326,6.0296,6.0386,6.0419,6.0487,6.0514,6.0479,6.0616,6.0646,6.0766,6.0804,6.083,6.0853,6.0812,6.0977,6.0993,6.1007,6.1059,6.108,6.0834,6.0834,6.0833,6.0833,0,6.0283,6.0359,6.0425,6.0494,6.054,6.0625,6.0635,6.0681,6.0672,6.0685,6.0786,6.082,6.0886,6.0914,6.0905,6.1033,6.1012,6.0978,6.0915,6.1034,6.1083,6.1103,6.0842,6.084,6.0838,6.0837,0,0,6.0466,6.0534,6.0559,6.059,6.0645,6.0702,6.0785,6.0852,6.0891,6.0939,6.1007,6.1101,6.1069,6.1105,6.11,6.1156,6.1275,6.1114,6.1115,6.1143,6.1417,6.1444,6.1467,6.1259,6.1263,6.1266,6.1413,0,6.0612,6.076,6.0761,6.0897,6.0966,6.0938,6.1009,6.105,6.1064,6.1123,6.1137,6.1204,6.1157,6.1178,6.1233,6.125,6.133,6.1239,6.1321,6.1324,6.1311,6.1492,6.1521,6.1659,6.1432,6.1436,6.1438,0,6.0803,6.0859,6.1002,6.1047,6.1076,6.1141,6.1202,6.126,6.1304,6.131,6.135,6.1336,6.1418,6.1353,6.1464,6.1402,6.1435,6.1448,6.1453,6.1462,6.1389,6.1506,6.1703,6.1724,6.1468,6.1466,6.1463,0,6.0923,6.1034,6.1134,6.1161,6.1216,6.1262,6.1286,6.1327,6.1367,6.1419,6.1445,6.1505,6.1538,6.1584,6.1586,6.1538,6.1699,6.1633,6.1705,6.1705,6.174,6.1738,6.1946,6.1761,6.1761,6.176,6.176,0,6.1086,6.1175,6.1189,6.125,6.1348,6.1347,6.1442,6.1462,6.1499,6.1562,6.1539,6.1599,6.1597,6.1657,6.1658,6.175,6.1765,6.1771,6.177,6.1774,6.1773,6.1796,6.1786,6.1766,6.1765,6.1764,6.1763,0,6.1237,6.125,6.1357,6.1401,6.1414,6.1484,6.1519,6.1577,6.1588,6.1669,6.1687,6.1705,6.1774,6.178,6.1859,6.186,6.1971,6.196,6.1958,6.1956,6.2027,6.202,6.2257,6.2288,6.2082,6.2084,6.2086,0,6.1341,6.1409,6.146,6.1502,6.153,6.1597,6.1639,6.1639,6.1682,6.1737,6.1788,6.1855,6.1909,6.202,6.2038,6.2098,6.2088,6.2167,6.2097,6.2098,6.209,6.2086,6.2092,6.2181,6.2183,6.2185,6.2186,0,6.1524,6.1527,6.1589,6.1653,6.1703,6.1753,6.1799,6.1834,6.184,6.1889,6.1961,6.2003,6.2084,6.215,6.2209,6.2231,6.221,6.2208,6.2228,6.2232,6.2228,6.2232,6.1995,6.2203,6.2201,6.22,6.2199,6.2198,6.1655,6.1714,6.176,6.1829,6.1864,6.1908,6.1964,6.1983,6.2044,6.2112,6.2107,6.2186,6.2226,6.2304,6.2331,6.239,6.2364,6.2392,6.2399,6.2407,6.2414,6.2218,6.2401,6.24,6.24,6.2399,6.2399,0,6.1838,6.1866,6.1929,6.1996,6.205,6.2026,6.2076,6.2122,6.2192,6.2233,6.2287,6.2368,6.2432,6.2456,6.2518,6.2561,6.2552,6.2577,6.2574,6.258,6.2435,6.2412,6.2583,6.2583,6.2583,6.2583,6.2583,6.2583,6.1939,6.2038,6.2046,6.2161,6.2187,6.2266,6.2296,6.2336,6.2369,6.2461,6.2515,6.2531,6.2564,6.2628,6.2685,6.269,6.2714,6.2743,6.2744,6.2608,6.259,6.2572,6.2551,6.2748,6.2749,6.2884,6.2885,6.2886]}]]